Location: Voyageurs National Park
(48.5020°N, 92.9292°W)
Time: 17:39:40
(UTC-05:00)

Cosmos 2263 Rocket - Pass Details

Date: 19 January 2018
Orbit: 822 x 850 km, 71.0° (Epoch: 20 May)

Event Time Altitude Azimuth Distance (km) Brightness Sun altitude
Exits shadow 05:54:01 19° 333° (NNW) 1,889 3.7 -19.7°
Drops below altitude 10° 05:57:05 10° 6° (N) 2,433 4.6 -19.2°
Sets 06:00:14 0° 24° (NNE) 3,372 5.5 -18.7°
